Language: 


Des rapports , des résumés tant et plus, au choix de chacun....


Données statistiques de la station
Quotidien Rapport Aout 30, 2017 Unités:  Métrique    Anglais   les deux
« Précédent Jour
Suivant Jour »
Quotidien Hebdomadaire Mensuel Annuel Actuel
  Haut: Bas: Moyen:
Température: 20.5 °C 13.7 °C 18.1 °C
Pt de rosée: 20.0 °C 14.0 °C 17.8 °C
Humidité: 98 % 90 % 96 %
Vitesse du vent: 24.5 km/h 0.0 km/h 4.8 km/h
Rafales: 39.3 km/h - -
Vent:- - WSW
Pression: 1013.1 hPa 1006.0 hPa -
Précipitation: 18.3 mm    
Historical Graphs
 
 
Données statistiques pour Aout 30, 2017
Heure Température Point de rosée Pression Vent Vitesse du vent Refales Humidité Pluie (taux horaire)
00:04 20.2 °C 19.0 °C 1009.0 hPa Calm   6.9 km/h 90 % 0.0 mm
00:09 20.2 °C 19.0 °C 1009.0 hPa NNE 5.8 km/h 6.4 km/h 90 % 0.0 mm
00:14 20.2 °C 19.0 °C 1009.0 hPa Calm   6.4 km/h 90 % 0.0 mm
00:19 20.3 °C 19.0 °C 1009.0 hPa Calm   6.4 km/h 91 % 0.0 mm
00:24 20.3 °C 19.0 °C 1009.0 hPa Calm   4.3 km/h 91 % 0.0 mm
00:30 20.3 °C 19.0 °C 1009.0 hPa Calm     91 % 0.0 mm
00:35 20.2 °C 19.0 °C 1009.0 hPa Calm   1.4 km/h 91 % 0.0 mm
00:40 20.2 °C 19.0 °C 1009.0 hPa Calm   1.4 km/h 91 % 0.0 mm
00:45 20.2 °C 19.0 °C 1008.0 hPa NE 2.1 km/h 4.3 km/h 91 % 0.0 mm
00:50 20.2 °C 19.0 °C 1008.0 hPa Calm   5.0 km/h 91 % 0.0 mm
00:55 20.1 °C 19.0 °C 1008.0 hPa Calm   6.1 km/h 91 % 0.0 mm
01:00 20.1 °C 19.0 °C 1009.0 hPa Calm   6.1 km/h 91 % 0.0 mm
01:05 20.1 °C 19.0 °C 1009.0 hPa NNE 4.3 km/h 4.7 km/h 91 % 0.0 mm
01:10 20.1 °C 19.0 °C 1009.0 hPa NNE 3.2 km/h 5.0 km/h 91 % 0.0 mm
01:15 20.1 °C 19.0 °C 1009.0 hPa NNW 2.1 km/h 5.0 km/h 91 % 0.0 mm
01:20 20.1 °C 19.0 °C 1009.0 hPa WNW 2.6 km/h 6.4 km/h 91 % 0.0 mm
01:25 20.2 °C 19.0 °C 1009.0 hPa NW 12.2 km/h 12.2 km/h 92 % 0.0 mm
01:30 20.3 °C 19.0 °C 1010.0 hPa North 3.5 km/h 12.2 km/h 92 % 0.0 mm
01:35 20.3 °C 19.0 °C 1010.0 hPa NNW 10.1 km/h 11.9 km/h 93 % 0.0 mm
01:40 20.4 °C 19.0 °C 1010.0 hPa North 9.7 km/h 10.1 km/h 92 % 0.0 mm
01:45 20.4 °C 19.0 °C 1009.0 hPa NNE 5.8 km/h 11.1 km/h 93 % 0.0 mm
01:50 20.4 °C 19.0 °C 1009.0 hPa NE 5.8 km/h 11.1 km/h 93 % 0.0 mm
01:55 20.3 °C 19.0 °C 1009.0 hPa WNW 2.1 km/h 9.0 km/h 92 % 0.0 mm
02:00 20.3 °C 19.0 °C 1009.0 hPa NE 5.5 km/h 11.6 km/h 93 % 0.0 mm
02:05 20.1 °C 19.0 °C 1009.0 hPa NE 2.1 km/h 11.6 km/h 93 % 0.0 mm
02:10 20.1 °C 19.0 °C 1009.0 hPa North 5.5 km/h 10.5 km/h 93 % 0.0 mm
02:15 20.0 °C 19.0 °C 1009.0 hPa NE 9.3 km/h 9.3 km/h 93 % 0.0 mm
02:20 20.0 °C 19.0 °C 1009.0 hPa NE 9.0 km/h 10.1 km/h 93 % 0.0 mm
02:23 20.0 °C 19.0 °C 1009.0 hPa NE 7.2 km/h 10.5 km/h 93 % 0.0 mm
02:33 19.9 °C 19.0 °C 1008.0 hPa NNE 4.3 km/h 10.5 km/h 93 % 0.0 mm
02:38 19.8 °C 19.0 °C 1008.0 hPa ENE 8.7 km/h 12.2 km/h 93 % 0.0 mm
02:43 19.9 °C 19.0 °C 1008.0 hPa NNE 9.3 km/h 12.2 km/h 94 % 0.0 mm
02:48 19.9 °C 19.0 °C 1008.0 hPa NE 6.9 km/h 12.2 km/h 94 % 0.0 mm
02:58 19.8 °C 19.0 °C 1008.0 hPa NE 7.6 km/h 9.7 km/h 94 % 0.0 mm
03:03 19.8 °C 19.0 °C 1007.0 hPa NE 6.4 km/h 9.7 km/h 94 % 0.0 mm
03:08 19.8 °C 19.0 °C 1007.0 hPa NE 5.8 km/h 8.7 km/h 94 % 0.0 mm
03:13 19.8 °C 19.0 °C 1007.0 hPa NNW 4.7 km/h 9.7 km/h 94 % 0.0 mm
03:19 20.0 °C 19.0 °C 1009.0 hPa West 24.5 km/h 34.6 km/h 94 % 0.0 mm
03:24 20.4 °C 19.0 °C 1009.0 hPa NE 8.7 km/h 39.3 km/h 93 % 0.0 mm
03:29 20.5 °C 20.0 °C 1009.0 hPa West 5.0 km/h 39.3 km/h 93 % 0.0 mm
03:34 20.5 °C 20.0 °C 1010.0 hPa ENE 2.6 km/h 19.5 km/h 93 % 0.3 mm
03:39 20.5 °C 20.0 °C 1010.0 hPa NE 12.6 km/h 14.3 km/h 93 % 1.3 mm
03:44 20.4 °C 19.0 °C 1010.0 hPa WNW 6.9 km/h 20.1 km/h 93 % 2.0 mm
03:49 20.0 °C 19.0 °C 1009.0 hPa NW 14.0 km/h 20.1 km/h 95 % 2.0 mm
03:54 19.9 °C 19.0 °C 1009.0 hPa NNW 8.7 km/h 14.0 km/h 95 % 2.5 mm
03:59 19.8 °C 19.0 °C 1009.0 hPa North 9.0 km/h 14.0 km/h 95 % 2.5 mm
04:04 19.7 °C 19.0 °C 1009.0 hPa NNW 4.0 km/h 10.1 km/h 95 % 2.5 mm
04:09 19.7 °C 19.0 °C 1009.0 hPa North 4.0 km/h 10.1 km/h 95 % 2.5 mm
04:14 19.7 °C 19.0 °C 1009.0 hPa NE 9.0 km/h 11.9 km/h 95 % 2.5 mm
04:19 19.5 °C 19.0 °C 1009.0 hPa NE 4.0 km/h 11.9 km/h 95 % 2.5 mm
04:24 19.5 °C 19.0 °C 1009.0 hPa ENE 6.9 km/h 9.7 km/h 95 % 2.5 mm
04:29 19.4 °C 19.0 °C 1009.0 hPa North 6.9 km/h 9.0 km/h 95 % 2.5 mm
04:35 19.4 °C 19.0 °C 1008.0 hPa North 5.8 km/h 10.1 km/h 95 % 3.0 mm
04:40 19.2 °C 19.0 °C 1008.0 hPa NE 8.7 km/h 12.6 km/h 96 % 2.3 mm
04:45 19.2 °C 19.0 °C 1007.0 hPa NNE 4.7 km/h 12.6 km/h 96 % 1.5 mm
04:50 19.1 °C 19.0 °C 1007.0 hPa NE 6.9 km/h 12.6 km/h 96 % 1.3 mm
04:55 19.1 °C 19.0 °C 1007.0 hPa ENE 6.9 km/h 9.7 km/h 96 % 1.3 mm
05:00 19.1 °C 19.0 °C 1007.0 hPa East 5.8 km/h 9.7 km/h 96 % 1.3 mm
05:05 19.1 °C 19.0 °C 1007.0 hPa Calm   9.7 km/h 96 % 1.3 mm
05:10 19.1 °C 19.0 °C 1007.0 hPa NE 7.6 km/h 10.5 km/h 96 % 1.3 mm
05:15 19.1 °C 19.0 °C 1007.0 hPa NNW 1.4 km/h 10.5 km/h 96 % 1.3 mm
05:20 19.1 °C 19.0 °C 1007.0 hPa Calm   6.9 km/h 96 % 1.3 mm
05:25 19.1 °C 19.0 °C 1007.0 hPa Calm   4.7 km/h 96 % 1.3 mm
05:30 19.1 °C 19.0 °C 1007.0 hPa Calm     96 % 1.0 mm
05:35 19.1 °C 19.0 °C 1007.0 hPa Calm     96 % 0.3 mm
05:40 19.1 °C 19.0 °C 1007.0 hPa Calm     96 % 0.0 mm
05:45 19.2 °C 19.0 °C 1008.0 hPa Calm     96 % 0.0 mm
05:55 19.2 °C 19.0 °C 1008.0 hPa Calm     96 % 0.3 mm
06:00 19.2 °C 19.0 °C 1007.0 hPa Calm     96 % 0.3 mm
06:05 19.1 °C 19.0 °C 1007.0 hPa Calm     96 % 0.3 mm
06:10 19.1 °C 19.0 °C 1007.0 hPa Calm     96 % 0.3 mm
06:15 19.1 °C 19.0 °C 1006.0 hPa Calm     96 % 0.3 mm
06:20 19.1 °C 19.0 °C 1006.0 hPa Calm     96 % 0.3 mm
06:25 19.1 °C 19.0 °C 1006.0 hPa Calm     96 % 0.3 mm
06:30 19.1 °C 19.0 °C 1006.0 hPa Calm     96 % 0.3 mm
06:40 19.2 °C 19.0 °C 1006.0 hPa Calm     96 % 0.3 mm
06:45 19.2 °C 19.0 °C 1007.0 hPa Calm     96 % 0.3 mm
06:50 19.2 °C 19.0 °C 1007.0 hPa Calm     96 % 0.3 mm
06:55 19.2 °C 19.0 °C 1007.0 hPa Calm     96 % 0.0 mm
07:00 19.2 °C 19.0 °C 1008.0 hPa Calm     96 % 0.3 mm
07:05 19.2 °C 19.0 °C 1008.0 hPa Calm     96 % 0.3 mm
07:11 19.2 °C 19.0 °C 1008.0 hPa Calm     96 % 0.3 mm
07:16 19.2 °C 19.0 °C 1008.0 hPa Calm     96 % 0.3 mm
07:21 19.2 °C 19.0 °C 1008.0 hPa Calm     96 % 0.5 mm
07:26 19.2 °C 19.0 °C 1008.0 hPa Calm     96 % 0.5 mm
07:31 19.2 °C 19.0 °C 1008.0 hPa Calm     96 % 0.8 mm
07:36 19.2 °C 19.0 °C 1008.0 hPa Calm     96 % 0.8 mm
07:41 19.2 °C 19.0 °C 1008.0 hPa Calm     96 % 1.3 mm
07:46 19.2 °C 19.0 °C 1008.0 hPa Calm     96 % 1.3 mm
07:51 19.2 °C 19.0 °C 1008.0 hPa Calm     96 % 1.8 mm
07:56 19.2 °C 19.0 °C 1008.0 hPa Calm     96 % 1.5 mm
08:01 19.2 °C 19.0 °C 1007.0 hPa Calm     96 % 1.5 mm
08:06 19.3 °C 19.0 °C 1007.0 hPa Calm     96 % 1.8 mm
08:11 19.3 °C 19.0 °C 1007.0 hPa Calm     96 % 1.8 mm
08:16 19.4 °C 19.0 °C 1008.0 hPa Calm     97 % 1.8 mm
08:21 19.5 °C 19.0 °C 1008.0 hPa Calm     97 % 1.5 mm
08:22 19.5 °C 19.0 °C 1008.0 hPa Calm     97 % 1.5 mm
08:27 19.6 °C 19.0 °C 1008.0 hPa Calm     97 % 1.3 mm
08:32 19.6 °C 19.0 °C 1008.0 hPa Calm     97 % 1.3 mm
08:37 19.6 °C 19.0 °C 1008.0 hPa Calm     97 % 1.3 mm
08:41 19.6 °C 19.0 °C 1008.0 hPa Calm     97 % 1.0 mm
08:46 19.6 °C 19.0 °C 1008.0 hPa Calm     97 % 0.8 mm
08:51 19.7 °C 19.0 °C 1008.0 hPa Calm     96 % 0.3 mm
08:56 19.7 °C 19.0 °C 1008.0 hPa Calm     96 % 0.5 mm
09:04 19.6 °C 19.0 °C 1009.0 hPa Calm     96 % 0.3 mm
09:09 19.6 °C 19.0 °C 1009.0 hPa Calm     96 % 0.5 mm
09:14 19.6 °C 19.0 °C 1009.0 hPa Calm     96 % 0.5 mm
09:19 19.7 °C 19.0 °C 1007.0 hPa Calm     97 % 0.8 mm
09:24 19.8 °C 19.0 °C 1007.0 hPa Calm     97 % 0.8 mm
09:29 19.9 °C 20.0 °C 1007.0 hPa Calm     97 % 0.8 mm
09:34 19.8 °C 19.0 °C 1008.0 hPa Calm     96 % 0.8 mm
09:39 19.8 °C 19.0 °C 1008.0 hPa Calm     96 % 0.8 mm
09:44 19.8 °C 19.0 °C 1008.0 hPa Calm     96 % 0.8 mm
09:49 19.8 °C 19.0 °C 1008.0 hPa Calm     96 % 0.8 mm
09:54 19.8 °C 19.0 °C 1008.0 hPa Calm     96 % 0.8 mm
09:59 19.9 °C 20.0 °C 1008.0 hPa Calm     96 % 0.5 mm
10:04 20.0 °C 20.0 °C 1008.0 hPa Calm     96 % 0.5 mm
10:09 20.0 °C 20.0 °C 1008.0 hPa Calm     96 % 0.3 mm
10:15 20.0 °C 20.0 °C 1008.0 hPa Calm     96 % 0.3 mm
10:20 20.0 °C 20.0 °C 1008.0 hPa Calm     96 % 0.0 mm
10:25 20.0 °C 20.0 °C 1008.0 hPa West 9.0 km/h 9.0 km/h 96 % 0.0 mm
10:30 20.0 °C 20.0 °C 1009.0 hPa WSW 6.1 km/h 9.7 km/h 96 % 0.0 mm
10:35 19.9 °C 20.0 °C 1009.0 hPa WSW 4.0 km/h 9.7 km/h 96 % 0.0 mm
10:40 19.9 °C 20.0 °C 1009.0 hPa WSW 4.0 km/h 9.7 km/h 96 % 0.0 mm
10:45 19.9 °C 20.0 °C 1009.0 hPa West 4.7 km/h 4.7 km/h 96 % 0.0 mm
10:50 19.9 °C 20.0 °C 1009.0 hPa WSW 8.7 km/h 8.7 km/h 96 % 0.0 mm
10:55 19.9 °C 20.0 °C 1009.0 hPa WSW 8.7 km/h 8.7 km/h 96 % 0.0 mm
11:00 19.9 °C 20.0 °C 1009.0 hPa WNW 2.1 km/h 4.7 km/h 96 % 0.0 mm
11:05 19.5 °C 19.0 °C 1009.0 hPa NW 3.2 km/h 4.7 km/h 96 % 0.0 mm
11:10 19.5 °C 19.0 °C 1009.0 hPa North 6.1 km/h 6.1 km/h 96 % 0.0 mm
11:15 19.3 °C 19.0 °C 1009.0 hPa WNW 2.1 km/h 6.1 km/h 96 % 0.0 mm
11:20 19.3 °C 19.0 °C 1009.0 hPa WNW 2.1 km/h 6.1 km/h 96 % 0.0 mm
11:25 19.3 °C 19.0 °C 1009.0 hPa West 5.0 km/h 5.0 km/h 96 % 0.0 mm
11:30 19.3 °C 19.0 °C 1009.0 hPa WNW 3.2 km/h 5.0 km/h 96 % 0.0 mm
11:35 19.3 °C 19.0 °C 1009.0 hPa Calm   3.2 km/h 96 % 0.0 mm
11:41 19.3 °C 19.0 °C 1009.0 hPa North 4.3 km/h 4.3 km/h 96 % 0.3 mm
11:46 19.3 °C 19.0 °C 1009.0 hPa Calm   4.3 km/h 96 % 0.3 mm
11:51 19.3 °C 19.0 °C 1009.0 hPa Calm     97 % 0.3 mm
11:56 19.4 °C 19.0 °C 1009.0 hPa Calm     97 % 0.3 mm
11:57 19.4 °C 19.0 °C 1009.0 hPa Calm     97 % 0.3 mm
12:02 19.3 °C 19.0 °C 1009.0 hPa North 3.2 km/h 3.2 km/h 96 % 0.3 mm
12:07 19.2 °C 19.0 °C 1009.0 hPa SSW 6.1 km/h 6.1 km/h 96 % 0.3 mm
12:12 19.2 °C 19.0 °C 1009.0 hPa North 5.8 km/h 6.1 km/h 96 % 0.3 mm
12:17 19.2 °C 19.0 °C 1010.0 hPa North 4.7 km/h 5.8 km/h 96 % 0.3 mm
12:22 19.6 °C 19.0 °C 1010.0 hPa NNW 4.0 km/h 5.8 km/h 97 % 0.3 mm
12:27 19.8 °C 19.0 °C 1010.0 hPa WNW 4.7 km/h 6.9 km/h 97 % 0.3 mm
12:32 19.8 °C 19.0 °C 1009.0 hPa North 4.7 km/h 8.7 km/h 97 % 0.3 mm
12:37 20.1 °C 20.0 °C 1009.0 hPa WNW 2.1 km/h 8.7 km/h 96 % 0.0 mm
12:38 20.1 °C 20.0 °C 1009.0 hPa WNW 2.1 km/h 8.7 km/h 96 % 0.0 mm
12:43 20.1 °C 20.0 °C 1009.0 hPa NNE 2.1 km/h 11.6 km/h 96 % 0.0 mm
12:48 20.2 °C 20.0 °C 1009.0 hPa Calm   11.6 km/h 96 % 0.0 mm
12:53 20.3 °C 20.0 °C 1009.0 hPa North 5.5 km/h 7.9 km/h 96 % 0.0 mm
12:58 20.1 °C 19.0 °C 1009.0 hPa NNW 5.5 km/h 6.9 km/h 95 % 0.0 mm
13:03 20.0 °C 19.0 °C 1009.0 hPa NNW 3.5 km/h 7.6 km/h 95 % 0.3 mm
13:08 19.9 °C 19.0 °C 1009.0 hPa WNW 6.4 km/h 9.0 km/h 95 % 0.3 mm
13:13 19.8 °C 19.0 °C 1009.0 hPa Calm   9.0 km/h 95 % 0.3 mm
13:18 19.7 °C 19.0 °C 1009.0 hPa NW 2.6 km/h 7.9 km/h 95 % 0.3 mm
13:23 19.6 °C 19.0 °C 1009.0 hPa Calm   10.5 km/h 95 % 0.3 mm
13:28 19.4 °C 19.0 °C 1009.0 hPa NNW 7.9 km/h 10.5 km/h 95 % 0.3 mm
13:33 19.4 °C 19.0 °C 1009.0 hPa NNW 4.0 km/h 11.6 km/h 95 % 0.3 mm
13:38 19.4 °C 19.0 °C 1009.0 hPa North 6.1 km/h 11.6 km/h 95 % 0.3 mm
13:43 19.4 °C 19.0 °C 1009.0 hPa NNW 6.1 km/h 10.5 km/h 96 % 0.3 mm
13:49 19.3 °C 19.0 °C 1008.0 hPa North 6.1 km/h 9.7 km/h 96 % 0.3 mm
13:54 19.3 °C 19.0 °C 1008.0 hPa NNE 5.0 km/h 9.0 km/h 96 % 0.3 mm
13:59 19.3 °C 19.0 °C 1008.0 hPa NNW 6.1 km/h 8.7 km/h 96 % 0.3 mm
14:04 19.2 °C 19.0 °C 1009.0 hPa North 6.9 km/h 9.7 km/h 96 % 0.0 mm
14:09 19.1 °C 19.0 °C 1009.0 hPa NNW 1.4 km/h 9.7 km/h 96 % 0.0 mm
14:14 19.1 °C 19.0 °C 1009.0 hPa NNW 7.9 km/h 7.9 km/h 96 % 0.0 mm
14:19 19.1 °C 19.0 °C 1009.0 hPa NW 4.0 km/h 7.9 km/h 96 % 0.0 mm
14:20 19.1 °C 19.0 °C 1009.0 hPa NNE 5.0 km/h 7.9 km/h 96 % 0.0 mm
14:25 19.0 °C 19.0 °C 1009.0 hPa NNW 5.0 km/h 6.4 km/h 96 % 0.0 mm
14:30 19.0 °C 19.0 °C 1008.0 hPa North 11.9 km/h 11.9 km/h 96 % 0.0 mm
14:35 19.0 °C 19.0 °C 1008.0 hPa WNW 4.3 km/h 11.9 km/h 96 % 0.0 mm
14:40 19.0 °C 19.0 °C 1008.0 hPa North 1.8 km/h 9.0 km/h 96 % 0.0 mm
14:45 19.0 °C 19.0 °C 1008.0 hPa NW 5.8 km/h 9.0 km/h 96 % 0.0 mm
14:50 19.0 °C 19.0 °C 1008.0 hPa Calm   8.7 km/h 96 % 0.0 mm
14:55 18.9 °C 19.0 °C 1008.0 hPa North 4.3 km/h 8.7 km/h 96 % 0.0 mm
15:00 18.8 °C 18.0 °C 1008.0 hPa NNE 4.7 km/h 8.7 km/h 96 % 0.0 mm
15:05 18.8 °C 18.0 °C 1008.0 hPa North 5.0 km/h 9.0 km/h 96 % 0.3 mm
15:10 18.7 °C 18.0 °C 1008.0 hPa Calm   9.0 km/h 96 % 0.5 mm
15:15 18.7 °C 18.0 °C 1008.0 hPa NNW 1.4 km/h 6.9 km/h 96 % 2.5 mm
15:20 18.6 °C 18.0 °C 1008.0 hPa Calm   7.2 km/h 96 % 2.8 mm
15:25 18.6 °C 18.0 °C 1008.0 hPa Calm   7.2 km/h 96 % 3.3 mm
15:30 18.6 °C 18.0 °C 1008.0 hPa WNW 4.3 km/h 6.1 km/h 96 % 3.8 mm
15:35 18.6 °C 18.0 °C 1008.0 hPa Calm   6.1 km/h 97 % 4.3 mm
15:40 18.6 °C 18.0 °C 1008.0 hPa WNW 3.5 km/h 8.7 km/h 97 % 4.6 mm
15:45 18.6 °C 18.0 °C 1008.0 hPa Calm   8.7 km/h 97 % 5.1 mm
15:50 18.6 °C 18.0 °C 1008.0 hPa NNW 6.9 km/h 7.9 km/h 97 % 5.3 mm
15:55 18.6 °C 18.0 °C 1008.0 hPa WNW 6.4 km/h 6.9 km/h 97 % 5.6 mm
16:00 18.6 °C 18.0 °C 1008.0 hPa WNW 6.4 km/h 6.9 km/h 97 % 5.6 mm
16:05 18.5 °C 18.0 °C 1008.0 hPa WNW 6.4 km/h 6.4 km/h 97 % 5.3 mm
16:10 18.4 °C 18.0 °C 1008.0 hPa North 12.2 km/h 12.2 km/h 96 % 5.1 mm
16:15 18.3 °C 18.0 °C 1008.0 hPa WNW 5.8 km/h 12.2 km/h 96 % 3.3 mm
16:20 18.2 °C 18.0 °C 1008.0 hPa NNW 7.9 km/h 12.2 km/h 96 % 3.0 mm
16:25 18.2 °C 18.0 °C 1008.0 hPa NNW 12.2 km/h 14.0 km/h 96 % 2.5 mm
16:30 18.1 °C 18.0 °C 1008.0 hPa NE 3.2 km/h 14.0 km/h 96 % 2.3 mm
16:35 17.9 °C 18.0 °C 1008.0 hPa NNW 14.8 km/h 14.8 km/h 96 % 1.8 mm
16:40 17.7 °C 17.0 °C 1008.0 hPa NNW 9.7 km/h 14.8 km/h 96 % 1.5 mm
16:46 17.7 °C 17.0 °C 1008.0 hPa NW 9.3 km/h 14.8 km/h 97 % 1.5 mm
16:51 17.5 °C 17.0 °C 1008.0 hPa North 9.3 km/h 16.6 km/h 96 % 1.3 mm
16:56 17.3 °C 17.0 °C 1008.0 hPa WNW 12.6 km/h 16.6 km/h 96 % 0.8 mm
17:01 17.1 °C 17.0 °C 1008.0 hPa NW 12.6 km/h 16.6 km/h 96 % 0.8 mm
17:06 17.1 °C 17.0 °C 1008.0 hPa NNE 5.5 km/h 14.8 km/h 96 % 0.8 mm
17:16 16.9 °C 17.0 °C 1008.0 hPa NNW 10.5 km/h 16.9 km/h 97 % 0.8 mm
17:21 16.8 °C 16.0 °C 1008.0 hPa NW 17.2 km/h 17.2 km/h 97 % 1.3 mm
17:26 16.7 °C 16.0 °C 1008.0 hPa North 9.7 km/h 19.8 km/h 97 % 1.3 mm
17:31 16.7 °C 16.0 °C 1009.0 hPa NNW 16.6 km/h 19.8 km/h 97 % 1.0 mm
17:33 16.6 °C 16.0 °C 1009.0 hPa North 14.8 km/h 25.6 km/h 97 % 1.0 mm
17:38 16.5 °C 16.0 °C 1009.0 hPa NNE 21.2 km/h 25.6 km/h 97 % 1.0 mm
17:43 16.4 °C 16.0 °C 1009.0 hPa North 16.6 km/h 31.7 km/h 97 % 1.0 mm
17:48 16.3 °C 16.0 °C 1009.0 hPa North 9.7 km/h 31.7 km/h 97 % 0.8 mm
17:53 16.2 °C 16.0 °C 1009.0 hPa North 12.2 km/h 19.8 km/h 97 % 0.8 mm
17:58 16.2 °C 16.0 °C 1009.0 hPa NNE 9.0 km/h 19.5 km/h 97 % 0.8 mm
18:03 16.1 °C 16.0 °C 1009.0 hPa NE 12.2 km/h 19.5 km/h 97 % 0.8 mm
18:08 15.9 °C 16.0 °C 1009.0 hPa North 13.7 km/h 20.1 km/h 97 % 0.8 mm
18:13 15.8 °C 15.0 °C 1009.0 hPa North 13.7 km/h 23.3 km/h 97 % 0.8 mm
18:18 15.7 °C 15.0 °C 1009.0 hPa NNW 12.6 km/h 23.3 km/h 97 % 1.0 mm
18:23 15.6 °C 15.0 °C 1009.0 hPa North 16.3 km/h 23.3 km/h 97 % 0.5 mm
18:28 15.5 °C 15.0 °C 1009.0 hPa NNW 7.9 km/h 27.4 km/h 97 % 0.5 mm
18:33 15.5 °C 15.0 °C 1009.0 hPa NNW 13.0 km/h 27.4 km/h 97 % 0.5 mm
18:38 15.4 °C 15.0 °C 1009.0 hPa North 12.2 km/h 31.7 km/h 97 % 0.5 mm
18:43 15.3 °C 15.0 °C 1009.0 hPa North 5.8 km/h 31.7 km/h 97 % 0.5 mm
18:48 15.2 °C 15.0 °C 1009.0 hPa NNW 11.9 km/h 25.6 km/h 97 % 0.5 mm
18:53 15.2 °C 15.0 °C 1009.0 hPa North 12.2 km/h 19.5 km/h 97 % 0.5 mm
18:58 15.1 °C 15.0 °C 1009.0 hPa North 5.8 km/h 20.9 km/h 97 % 0.5 mm
19:03 15.1 °C 15.0 °C 1010.0 hPa North 8.7 km/h 20.9 km/h 97 % 0.5 mm
19:08 15.0 °C 15.0 °C 1010.0 hPa NNW 15.8 km/h 20.9 km/h 97 % 0.3 mm
19:13 15.0 °C 15.0 °C 1010.0 hPa NNW 9.0 km/h 20.9 km/h 97 % 0.3 mm
19:18 15.0 °C 15.0 °C 1010.0 hPa North 9.3 km/h 15.8 km/h 98 % 0.3 mm
19:23 14.9 °C 15.0 °C 1010.0 hPa North 9.0 km/h 15.8 km/h 98 % 0.3 mm
19:28 14.9 °C 15.0 °C 1010.0 hPa NNE 15.8 km/h 15.8 km/h 98 % 0.3 mm
19:33 14.9 °C 15.0 °C 1010.0 hPa NNW 7.2 km/h 15.8 km/h 98 % 0.3 mm
19:38 14.9 °C 15.0 °C 1010.0 hPa WNW 6.1 km/h 16.3 km/h 98 % 0.5 mm
19:44 14.9 °C 15.0 °C 1010.0 hPa NNW 5.8 km/h 16.3 km/h 98 % 0.5 mm
19:49 14.8 °C 15.0 °C 1011.1 hPa Calm   10.5 km/h 98 % 0.5 mm
19:54 14.7 °C 15.0 °C 1011.1 hPa NNW 15.4 km/h 17.2 km/h 98 % 0.5 mm
19:59 14.7 °C 15.0 °C 1011.1 hPa NNW 10.1 km/h 17.2 km/h 98 % 0.8 mm
20:04 14.6 °C 15.0 °C 1011.1 hPa North 9.0 km/h 15.4 km/h 98 % 0.8 mm
20:09 14.6 °C 15.0 °C 1011.1 hPa North 4.3 km/h 14.0 km/h 98 % 0.8 mm
20:14 14.5 °C 15.0 °C 1011.1 hPa NNW 10.1 km/h 15.8 km/h 98 % 0.8 mm
20:19 14.5 °C 15.0 °C 1011.1 hPa North 2.1 km/h 15.8 km/h 98 % 0.5 mm
20:24 14.5 °C 15.0 °C 1011.1 hPa North 10.5 km/h 12.2 km/h 98 % 0.5 mm
20:29 14.5 °C 15.0 °C 1011.1 hPa NNE 6.9 km/h 12.6 km/h 98 % 0.5 mm
20:34 14.5 °C 15.0 °C 1011.1 hPa NNE 8.7 km/h 14.0 km/h 98 % 0.5 mm
20:39 14.5 °C 15.0 °C 1011.1 hPa North 9.0 km/h 14.0 km/h 98 % 0.3 mm
20:44 14.5 °C 15.0 °C 1011.1 hPa NNE 5.8 km/h 13.0 km/h 98 % 0.3 mm
20:49 14.5 °C 15.0 °C 1012.1 hPa North 5.5 km/h 12.2 km/h 98 % 0.3 mm
20:54 14.5 °C 15.0 °C 1012.1 hPa North 4.3 km/h 12.2 km/h 98 % 0.3 mm
20:59 14.5 °C 15.0 °C 1012.1 hPa NE 5.5 km/h 10.1 km/h 98 % 0.0 mm
21:04 14.5 °C 15.0 °C 1011.1 hPa NNE 7.9 km/h 10.1 km/h 98 % 0.0 mm
21:09 14.5 °C 15.0 °C 1011.1 hPa West 6.4 km/h 10.5 km/h 98 % 0.0 mm
21:14 14.5 °C 15.0 °C 1011.1 hPa North 5.5 km/h 10.5 km/h 98 % 0.3 mm
21:16 14.5 °C 15.0 °C 1011.1 hPa North 11.1 km/h 11.1 km/h 98 % 0.3 mm
21:22 14.5 °C 15.0 °C 1011.1 hPa NNE 2.6 km/h 11.1 km/h 98 % 0.3 mm
21:27 14.4 °C 14.0 °C 1011.1 hPa North 11.9 km/h 11.9 km/h 98 % 0.3 mm
21:37 14.3 °C 14.0 °C 1011.1 hPa North 9.0 km/h 11.9 km/h 98 % 0.3 mm
21:42 14.2 °C 14.0 °C 1011.1 hPa NNW 9.3 km/h 12.2 km/h 98 % 0.3 mm
21:47 14.2 °C 14.0 °C 1011.1 hPa NW 8.7 km/h 12.2 km/h 98 % 0.3 mm
21:57 14.2 °C 14.0 °C 1011.1 hPa Calm   8.7 km/h 98 % 0.3 mm
22:02 14.1 °C 14.0 °C 1010.0 hPa North 9.0 km/h 9.0 km/h 98 % 0.3 mm
22:07 14.1 °C 14.0 °C 1010.0 hPa Calm   9.0 km/h 98 % 0.3 mm
22:12 14.1 °C 14.0 °C 1010.0 hPa Calm   9.0 km/h 98 % 0.3 mm
22:17 14.1 °C 14.0 °C 1011.1 hPa Calm   5.8 km/h 98 % 0.0 mm
22:22 14.1 °C 14.0 °C 1011.1 hPa NNE 4.0 km/h 5.8 km/h 98 % 0.3 mm
22:27 14.1 °C 14.0 °C 1011.1 hPa WNW 3.2 km/h 4.3 km/h 98 % 0.3 mm
22:32 14.1 °C 14.0 °C 1011.1 hPa NNW 4.7 km/h 4.7 km/h 98 % 0.3 mm
22:37 14.1 °C 14.0 °C 1011.1 hPa NNW 1.4 km/h 4.7 km/h 98 % 0.3 mm
22:42 14.1 °C 14.0 °C 1011.1 hPa North 6.1 km/h 7.9 km/h 98 % 0.3 mm
22:47 14.0 °C 14.0 °C 1012.1 hPa Calm   7.9 km/h 98 % 0.3 mm
22:52 14.0 °C 14.0 °C 1012.1 hPa North 2.6 km/h 7.9 km/h 98 % 0.3 mm
22:57 14.0 °C 14.0 °C 1012.1 hPa Calm   7.9 km/h 98 % 0.3 mm
23:02 14.0 °C 14.0 °C 1012.1 hPa NW 4.0 km/h 7.9 km/h 98 % 0.3 mm
23:03 14.0 °C 14.0 °C 1012.1 hPa Calm   7.9 km/h 98 % 0.3 mm
23:08 14.0 °C 14.0 °C 1012.1 hPa Calm   4.7 km/h 98 % 0.3 mm
23:13 14.0 °C 14.0 °C 1012.1 hPa Calm   5.0 km/h 98 % 0.3 mm
23:18 14.0 °C 14.0 °C 1013.1 hPa WNW 2.1 km/h 6.4 km/h 98 % 0.3 mm
23:23 14.0 °C 14.0 °C 1013.1 hPa Calm   9.0 km/h 98 % 0.0 mm
23:33 14.0 °C 14.0 °C 1012.1 hPa NNW 4.0 km/h 9.0 km/h 98 % 0.0 mm
23:38 14.0 °C 14.0 °C 1012.1 hPa WNW 5.8 km/h 7.9 km/h 98 % 0.0 mm
23:43 14.0 °C 14.0 °C 1012.1 hPa North 13.0 km/h 13.0 km/h 98 % 0.5 mm
23:48 13.9 °C 14.0 °C 1012.1 hPa NW 6.4 km/h 13.7 km/h 98 % 0.8 mm
23:53 13.8 °C 14.0 °C 1012.1 hPa West 10.5 km/h 15.4 km/h 98 % 1.3 mm
23:58 13.7 °C 14.0 °C 1012.1 hPa WNW 8.7 km/h 15.4 km/h 98 % 1.3 mm
Le Gheer Warneton
Courtoisie de Weather Underground - 2.25 mb

Mise a jour : 18/12/2017 21:24:12
Généré par Cumulus 1.9.4 (1099)